Weather History for CWSP - January, 2013

Change the Weather History Date:

Saturday, January 26, 2013

  Actual Average Record
Temperature  
Mean Temperature 42 °F -  
Max Temperature 45 °F - - ()
Min Temperature 40 °F - - ()
Degree Days  
Heating Degree Days 22    
Moisture  
Dew Point 40 °F    
Average Humidity 90    
Maximum Humidity 95    
Minimum Humidity 79    
Precipitation  
Precipitation 0.16 in - - ()
Sea Level Pressure  
Sea Level Pressure 29.90 in    
Wind  
Wind Speed 25 mph ()    
Max Wind Speed 37 mph    
Max Gust Speed -    
T = Trace of Precipitation, MM = Missing Value Source: Averaged Metar Reports

Daily Weather History Graph

Daily Weather History Graph

Search for Another Location

Airport or City:

Trip Planner

Search our weather history database for the weather conditions in past years. The results will help you decide how hot, cold, wet, or windy it might be!

Date:

Astronomy

Jan. 26, 2013 Rise Set
Actual Time 7:51 AM PST 5:05 PM PST
Civil Twilight 7:17 AM PST 5:40 PM PST
Nautical Twilight 6:39 AM PST 6:18 PM PST
Astronomical Twilight 6:02 AM PST 6:54 PM PST
Moon 5:10 PM PST (1/26) 7:09 AM PST (1/26)
Length of Visible Light 10h 22m
Length of Day
9h 14m
Full, 100% of the Moon is Illuminated
Jan 26
Full
Jan 26
Full
Feb 3
Last Quarter
Feb 9
New
Feb 17
First Quarter

Hourly Weather History & Observations

Time (PST) Temp. Windchill Dew Point Humidity Pressure Visibility Wind Dir Wind Speed Gust Speed Precip Events Conditions
12:00 AM 43.0 °F 33.5 °F 38.5 °F 84% 29.86 in - North 24.2 mph - N/A   Unknown
1:00 AM 42.3 °F 31.8 °F 38.5 °F 86% 29.83 in - North 28.8 mph - N/A   Unknown
2:00 AM 43.3 °F 32.2 °F 40.5 °F 90% 29.85 in - North 35.7 mph - N/A   Unknown
3:00 AM 42.8 °F 33.3 °F 40.6 °F 92% 29.84 in - North 24.2 mph - N/A   Unknown
4:00 AM 42 °F - 40 °F 92% 29.83 in - Calm Calm - -  
4:00 AM 42.4 °F 39.6 °F 40.5 °F 93% 29.83 in - North 4.6 mph - N/A   Unknown
5:00 AM 41.7 °F 30.1 °F 40.1 °F 94% 29.83 in - North 34.5 mph - 0.02 in   Unknown
6:00 AM 41.4 °F - 40.1 °F 95% 29.83 in - North 1.2 mph - 0.03 in   Unknown
7:00 AM 41.4 °F 29.6 °F 39.9 °F 95% 29.84 in - North 34.5 mph - 0.02 in   Unknown
8:00 AM 40.3 °F 27.8 °F 38.1 °F 92% 29.86 in - North 36.8 mph - 0.07 in   Unknown
9:00 AM 40.8 °F 29.0 °F 38.5 °F 91% 29.87 in - North 33.4 mph - 0.02 in   Unknown
10:00 AM 41 °F - 39 °F 88% 29.89 in - Calm Calm - -  
10:00 AM 40.6 °F 28.6 °F 38.7 °F 93% 29.89 in - North 34.5 mph - N/A   Unknown
11:00 AM 41.0 °F 29.3 °F 39.7 °F 95% 29.90 in - North 33.4 mph - N/A   Unknown
12:00 PM 42.1 °F 30.6 °F 39.9 °F 92% 29.90 in - North 34.5 mph - N/A   Unknown
1:00 PM 42.1 °F 30.8 °F 39.9 °F 92% 29.90 in - North 33.4 mph - N/A   Unknown
2:00 PM 42.4 °F 31.3 °F 40.3 °F 92% 29.90 in - North 33.4 mph - N/A   Unknown
3:00 PM 43.5 °F 32.6 °F 40.5 °F 89% 29.91 in - North 34.5 mph - N/A   Unknown
4:00 PM 43 °F - 41 °F 90% 29.92 in - Calm Calm - -  
4:00 PM 42.6 °F 31.5 °F 41.0 °F 94% 29.92 in - North 33.4 mph - 0.02 in   Unknown
5:00 PM 42.6 °F 31.4 °F 40.5 °F 92% 29.93 in - North 34.5 mph - N/A   Unknown
6:00 PM 43.2 °F 32.4 °F 41.0 °F 92% 29.94 in - North 32.2 mph - 0.03 in   Unknown
7:00 PM 43.5 °F 32.9 °F 40.3 °F 88% 29.96 in - North 32.2 mph - 0.02 in   Unknown
8:00 PM 44.1 °F 33.8 °F 39.6 °F 84% 29.96 in - North 31.1 mph - N/A   Unknown
9:00 PM 44.1 °F 34.0 °F 39.0 °F 82% 29.97 in - North 29.9 mph - N/A   Unknown
10:00 PM 44 °F - 40 °F 79% 29.98 in - Calm Calm - -  
10:00 PM 43.5 °F 33.1 °F 39.7 °F 87% 29.98 in - North 31.1 mph - N/A   Unknown
11:00 PM 42.3 °F 30.9 °F 40.3 °F 93% 30.00 in - North 34.5 mph - 0.03 in   Unknown